KG6SIB Weather Reports


time (UTC)temp
C
wind
direction
speed
KPH
gust
KPH
rain 1hr
cm
rain 24hr
cm
rain mn
cm
humidity
%
barometer
mb
20260510082124 8 38 8.0 14.5 0.00 0.00 0.00 38 1015.0
20260510081124 8 71 8.0 14.5 0.00 0.00 0.00 39 1015.1
20260510080624 8 67 9.7 14.5 0.00 0.00 0.00 39 1015.2
20260510080124 8 60 8.0 12.9 0.00 0.00 0.00 39 1015.2
20260510075624 8 41 8.0 12.9 0.00 0.00 0.00 39 1015.2
20260510075124 8 59 9.7 11.3 0.00 0.00 0.00 40 1015.2
20260510074624 9 38 6.4 12.9 0.00 0.00 0.00 40 1015.6
20260510073624 9 39 8.0 16.1 0.00 0.00 0.00 40 1015.7
20260510073124 9 65 6.4 16.1 0.00 0.00 0.00 40 1015.7
20260510072624 9 51 8.0 14.5 0.00 0.00 0.00 40 1015.8
20260510072124 9 59 8.0 14.5 0.00 0.00 0.00 39 1015.8
20260510071624 9 64 6.4 14.5 0.00 0.00 0.00 39 1015.8
20260510071124 9 78 12.9 14.5 0.00 0.00 0.00 40 1015.7
20260510070623 9 59 9.7 14.5 0.00 0.00 0.00 39 1015.8
20260510070153 9 74 11.3 12.9 0.00 0.00 0.00 40 1015.7
20260510065123 10 34 6.4 12.9 0.00 0.00 0.00 40 1015.7
20260510064623 10 54 9.7 12.9 0.00 0.00 0.00 41 1015.6
20260510064124 10 24 8.0 12.9 0.00 0.00 0.00 42 1015.7
20260510063623 10 24 6.4 12.9 0.00 0.00 0.00 42 1015.7
20260510063123 10 57 6.4 14.5 0.00 0.00 0.00 44 1015.7
20260510062653 10 52 8.0 14.5 0.00 0.00 0.00 44 1015.7
20260510062153 10 61 4.8 14.5 0.00 0.00 0.00 45 1015.6
20260510061653 10 67 6.4 12.9 0.00 0.00 0.00 46 1015.6
20260510061153 10 74 8.0 12.9 0.00 0.00 0.00 46 1015.5
20260510060653 10 49 6.4 16.1 0.00 0.00 0.00 46 1015.8
20260510060153 10 74 8.0 16.1 0.00 0.00 0.00 46 1015.8
20260510055653 10 65 6.4 14.5 0.00 0.00 0.00 47 1015.6
20260510055153 10 33 6.4 12.9 0.00 0.00 0.00 46 1015.6
20260510054653 10 73 6.4 12.9 0.00 0.00 0.00 46 1015.6
20260510054153 10 95 9.7 12.9 0.00 0.00 0.00 46 1015.6
20260510053652 10 103 9.7 12.9 0.00 0.00 0.00 47 1015.7
20260510053153 10 78 3.2 14.5 0.00 0.00 0.00 47 1015.5
20260510052652 10 63 8.0 14.5 0.00 0.00 0.00 48 1015.6
20260510052153 10 22 9.7 14.5 0.00 0.00 0.00 47 1015.5
20260510051153 10 76 11.3 12.9 0.00 0.00 0.00 45 1015.5
20260510050653 10 52 8.0 12.9 0.00 0.00 0.00 48 1015.5
20260510050152 10 76 8.0 12.9 0.00 0.00 0.00 46 1015.5
20260510045653 11 59 8.0 14.5 0.00 0.00 0.00 47 1015.4
20260510045152 11 48 6.4 14.5 0.00 0.00 0.00 50 1015.3
20260510044652 10 69 4.8 12.9 0.00 0.00 0.00 49 1015.1
20260510044152 10 74 8.0 12.9 0.00 0.00 0.00 52 1015.1
20260510043652 10 74 11.3 12.9 0.00 0.00 0.00 53 1015.0
20260510043152 11 52 6.4 12.9 0.00 0.00 0.00 56 1015.1
20260510042652 10 79 12.9 12.9 0.00 0.00 0.00 58 1014.9
20260510042152 11 67 4.8 12.9 0.00 0.00 0.00 59 1015.1
20260510041152 11 85 11.3 12.9 0.00 0.00 0.00 57 1015.1
20260510040652 11 71 8.0 12.9 0.00 0.00 0.00 58 1015.1
20260510040152 11 50 6.4 11.3 0.00 0.00 0.00 63 1015.0
20260510035652 11 61 8.0 11.3 0.00 0.00 0.00 61 1014.3
20260510035152 11 51 9.7 11.3 0.00 0.00 0.00 63 1014.7
20260510034152 12 74 4.8 11.3 0.00 0.00 0.00 65 1014.6
20260510033651 12 55 6.4 9.7 0.00 0.00 0.00 67 1014.9
20260510033151 12 65 6.4 9.7 0.00 0.00 0.00 67 1014.8
20260510032651 13 48 6.4 11.3 0.00 0.00 0.00 67 1014.7
20260510032151 13 69 4.8 11.3 0.00 0.00 0.00 67 1014.4
20260510031151 13 53 8.0 8.0 0.00 0.00 0.00 68 1014.6
20260510030652 14 51 4.8 8.0 0.00 0.00 0.00 68 1014.6
20260510030152 14 51 4.8 8.0 0.00 0.00 0.00 67 1014.5
20260510025651 15 62 4.8 8.0 0.00 0.00 0.00 66 1013.8
20260510025151 15 54 4.8 8.0 0.00 0.00 0.00 65 1013.9
20260510024651 16 61 4.8 8.0 0.00 0.00 0.00 64 1014.2
20260510024151 16 63 6.4 8.0 0.00 0.00 0.00 63 1014.2
20260510023151 17 48 6.4 6.4 0.00 0.00 0.00 60 1014.5
20260510022151 18 236 0.0 0.0 0.00 0.00 0.00 58 1014.6
20260510021650 18 236 0.0 0.0 0.00 0.00 0.00 56 1014.5
20260510021150 19 236 0.0 0.0 0.00 0.00 0.00 55 1014.8
20260510020651 19 236 0.0 0.0 0.00 0.00 0.00 55 1014.8
20260510020150 20 236 0.0 0.0 0.00 0.00 0.00 54 1014.7
20260510015151 20 236 0.0 6.4 0.00 0.00 0.00 54 1013.5
20260510014650 20 236 4.8 6.4 0.00 0.00 0.00 53 1013.5
20260510014150 21 261 0.0 4.8 0.00 0.00 0.00 54 1013.6
20260510013650 21 265 1.6 11.3 0.00 0.00 0.00 52 1013.6
20260510013150 21 255 0.0 11.3 0.00 0.00 0.00 52 1013.7
20260510012650 21 242 0.0 12.9 0.00 0.00 0.00 52 1013.6
20260510012150 21 242 4.8 12.9 0.00 0.00 0.00 51 1013.6
20260510011150 22 229 1.6 9.7 0.00 0.00 0.00 51 1013.8
20260510010650 22 234 1.6 14.5 0.00 0.00 0.00 49 1013.7
20260510010150 22 258 6.4 14.5 0.00 0.00 0.00 50 1013.9
20260510005650 23 232 1.6 12.9 0.00 0.00 0.00 49 1013.7
20260510005149 23 224 8.0 12.9 0.00 0.00 0.00 49 1013.7
20260510004650 23 202 3.2 12.9 0.00 0.00 0.00 48 1013.6
20260510004149 23 227 0.0 12.9 0.00 0.00 0.00 47 1013.7
20260510003650 24 224 6.4 12.9 0.00 0.00 0.00 48 1013.8
20260510002149 25 224 4.8 14.5 0.00 0.00 0.00 46 1013.8
20260510001649 25 237 0.0 14.5 0.00 0.00 0.00 45 1013.7
20260510001150 25 227 6.4 17.7 0.00 0.00 0.00 46 1013.7
20260510000649 25 249 8.0 17.7 0.00 0.00 0.00 45 1013.9
20260509235650 25 253 14.5 17.7 0.00 0.00 0.00 44 1013.6
20260509235149 25 243 4.8 17.7 0.00 0.00 0.00 44 1013.6
20260509234649 26 232 6.4 14.5 0.00 0.00 0.00 44 1013.8
20260509233649 26 250 3.2 11.3 0.00 0.00 0.00 43 1013.9
20260509233149 26 234 0.0 16.1 0.00 0.00 0.00 43 1013.9
20260509232149 27 244 14.5 16.1 0.00 0.00 0.00 42 1014.1
20260509231649 27 227 0.0 14.5 0.00 0.00 0.00 43 1014.1
20260509230149 27 260 9.7 17.7 0.00 0.00 0.00 43 1014.1
20260509225648 27 239 0.0 16.1 0.00 0.00 0.00 42 1014.1
20260509224648 27 211 4.8 14.5 0.00 0.00 0.00 43 1014.3
20260509224148 27 184 3.2 17.7 0.00 0.00 0.00 41 1014.3
20260509223648 27 248 0.0 17.7 0.00 0.00 0.00 40 1014.4
20260509223149 27 227 3.2 17.7 0.00 0.00 0.00 40 1014.4
20260509222648 28 225 3.2 17.7 0.00 0.00 0.00 39 1014.6
20260509222148 28 315 3.2 16.1 0.00 0.00 0.00 40 1014.7
20260509221648 28 232 1.6 16.1 0.00 0.00 0.00 37 1014.5
20260509221148 28 231 4.8 17.7 0.00 0.00 0.00 37 1014.5
20260509220648 28 347 3.2 17.7 0.00 0.00 0.00 36 1014.5
20260509220148 28 234 1.6 14.5 0.00 0.00 0.00 37 1014.7
20260509215148 28 252 6.4 16.1 0.00 0.00 0.00 32 1014.7
20260509214648 28 232 1.6 16.1 0.00 0.00 0.00 33 1014.6
20260509214148 28 235 3.2 14.5 0.00 0.00 0.00 32 1014.6
20260509213148 28 227 3.2 17.7 0.00 0.00 0.00 31 1014.6
20260509212648 28 188 3.2 17.7 0.00 0.00 0.00 31 1014.7
20260509212147 29 254 1.6 12.9 0.00 0.00 0.00 33 1015.1
20260509211648 28 319 3.2 12.9 0.00 0.00 0.00 31 1014.8
20260509210148 28 229 14.5 19.3 0.00 0.00 0.00 30 1015.0
20260509205648 28 220 11.3 17.7 0.00 0.00 0.00 31 1015.0
20260509205147 28 200 6.4 16.1 0.00 0.00 0.00 30 1015.1
20260509204647 28 224 8.0 16.1 0.00 0.00 0.00 32 1015.1
20260509204148 28 193 3.2 16.1 0.00 0.00 0.00 29 1015.2
20260509203647 28 338 4.8 16.1 0.00 0.00 0.00 29 1015.2
20260509203147 28 242 4.8 16.1 0.00 0.00 0.00 27 1015.2
20260509202647 28 234 3.2 17.7 0.00 0.00 0.00 30 1015.2
20260509202147 29 237 8.0 17.7 0.00 0.00 0.00 28 1015.4
20260509201647 29 290 8.0 16.1 0.00 0.00 0.00 27 1015.4
20260509200647 29 235 3.2 16.1 0.00 0.00 0.00 30 1015.5
20260509200147 29 251 4.8 16.1 0.00 0.00 0.00 29 1015.5
20260509195647 29 244 0.0 14.5 0.00 0.00 0.00 29 1015.4
20260509193146 28 284 3.2 12.9 0.00 0.00 0.00 31 1015.3
20260509192647 28 235 6.4 11.3 0.00 0.00 0.00 30 1015.2
20260509192146 28 244 0.0 14.5 0.00 0.00 0.00 30 1015.4
20260509191646 28 232 4.8 14.5 0.00 0.00 0.00 31 1015.5
20260509191147 28 257 3.2 9.7 0.00 0.00 0.00 30 1015.5
20260509190647 28 311 3.2 16.1 0.00 0.00 0.00 31 1015.6
20260509185146 28 234 4.8 17.7 0.00 0.00 0.00 31 1015.6
20260509184646 28 223 3.2 17.7 0.00 0.00 0.00 32 1015.6
20260509184146 27 254 8.0 14.5 0.00 0.00 0.00 30 1015.6
20260509183646 27 250 11.3 14.5 0.00 0.00 0.00 29 1015.6
20260509183146 27 250 6.4 14.5 0.00 0.00 0.00 27 1015.6
20260509182646 28 254 0.0 11.3 0.00 0.00 0.00 27 1015.6
20260509182146 27 202 4.8 16.1 0.00 0.00 0.00 29 1015.7
20260509181146 27 243 8.0 12.9 0.00 0.00 0.00 30 1015.9
20260509180646 27 232 4.8 12.9 0.00 0.00 0.00 29 1015.9
20260509175645 27 251 8.0 17.7 0.00 0.00 0.00 31 1015.9
20260509175145 27 273 11.3 17.7 0.00 0.00 0.00 31 1015.9
20260509174645 26 242 8.0 17.7 0.00 0.00 0.00 30 1015.7
20260509174145 27 242 6.4 12.9 0.00 0.00 0.00 29 1015.9
20260509173645 27 278 9.7 12.9 0.00 0.00 0.00 31 1015.9
20260509173145 26 5 0.0 11.3 0.00 0.00 0.00 32 1015.7
20260509172646 26 265 6.4 11.3 0.00 0.00 0.00 29 1015.7
20260509172145 26 226 4.8 11.3 0.00 0.00 0.00 30 1015.7
20260509171645 26 225 9.7 11.3 0.00 0.00 0.00 29 1015.6
20260509171145 26 184 0.0 9.7 0.00 0.00 0.00 32 1015.5
20260509170645 26 210 1.6 9.7 0.00 0.00 0.00 33 1015.4
20260509170145 26 190 0.0 8.0 0.00 0.00 0.00 32 1015.4
20260509165145 25 188 3.2 9.7 0.00 0.00 0.00 33 1015.6
20260509164145 25 217 1.6 9.7 0.00 0.00 0.00 36 1015.4
20260509163645 25 252 0.0 11.3 0.00 0.00 0.00 34 1015.3
20260509162644 24 225 3.2 8.0 0.00 0.00 0.00 37 1015.3
20260509161645 23 240 1.6 17.7 0.00 0.00 0.00 38 1015.1
20260509160645 23 263 0.0 9.7 0.00 0.00 0.00 37 1015.0
20260509160144 23 201 0.0 0.0 0.00 0.00 0.00 40 1014.9
20260509155645 22 201 0.0 0.0 0.00 0.00 0.00 40 1015.1
20260509154644 22 91 0.0 0.0 0.00 0.00 0.00 40 1015.1
20260509153644 21 84 0.0 0.0 0.00 0.00 0.00 48 1015.0
20260509152644 20 84 0.0 0.0 0.00 0.00 0.00 48 1014.8
20260509152144 20 84 0.0 0.0 0.00 0.00 0.00 52 1014.8
20260509151644 19 83 0.0 0.0 0.00 0.00 0.00 50 1014.6
20260509151144 18 82 0.0 0.0 0.00 0.00 0.00 56 1014.6
20260509150644 18 82 0.0 0.0 0.00 0.00 0.00 60 1014.7
20260509150143 18 82 0.0 3.2 0.00 0.00 0.00 62 1014.5
20260509145644 17 82 0.0 4.8 0.00 0.00 0.00 59 1015.1
20260509144644 16 94 3.2 8.0 0.00 0.00 0.00 61 1015.0
20260509144144 15 88 1.6 11.3 0.00 0.00 0.00 62 1014.8
20260509143643 15 84 8.0 11.3 0.00 0.00 0.00 63 1014.7
20260509143144 14 78 1.6 11.3 0.00 0.00 0.00 63 1014.5
20260509142643 13 75 4.8 11.3 0.00 0.00 0.00 65 1014.5
20260509141643 12 50 8.0 11.3 0.00 0.00 0.00 68 1014.2
20260509141143 12 70 4.8 11.3 0.00 0.00 0.00 68 1014.0
20260509140643 11 67 3.2 11.3 0.00 0.00 0.00 69 1013.9
20260509135643 10 64 6.4 11.3 0.00 0.00 0.00 72 1014.2
20260509135143 10 74 4.8 12.9 0.00 0.00 0.00 72 1014.1
20260509134143 8 66 6.4 11.3 0.00 0.00 0.00 73 1014.0
20260509133642 8 76 8.0 11.3 0.00 0.00 0.00 73 1013.9
20260509133142 8 71 6.4 12.9 0.00 0.00 0.00 72 1013.5
20260509132643 8 59 6.4 12.9 0.00 0.00 0.00 72 1013.6
20260509132142 8 38 6.4 12.9 0.00 0.00 0.00 71 1013.6
20260509131643 8 66 8.0 12.9 0.00 0.00 0.00 71 1013.6
20260509131142 8 58 6.4 14.5 0.00 0.00 0.00 69 1013.5
20260509130643 8 55 8.0 14.5 0.00 0.00 0.00 68 1013.8
20260509125642 8 76 4.8 12.9 0.00 0.00 0.00 67 1014.3
20260509125142 8 42 6.4 12.9 0.00 0.00 0.00 68 1014.4
20260509124142 8 70 8.0 12.9 0.00 0.00 0.00 67 1014.4
20260509123642 8 31 6.4 11.3 0.00 0.00 0.00 67 1014.3
20260509123142 8 53 6.4 11.3 0.00 0.00 0.00 68 1014.3
20260509122642 8 57 8.0 11.3 0.00 0.00 0.00 68 1014.3
20260509122142 8 53 8.0 11.3 0.00 0.00 0.00 68 1014.0
20260509121642 8 57 6.4 12.9 0.00 0.00 0.00 67 1014.1
20260509120641 8 81 6.4 11.3 0.00 0.00 0.00 69 1014.0
20260509120141 8 69 8.0 11.3 0.00 0.00 0.00 68 1014.2
20260509115642 8 73 6.4 14.5 0.00 0.00 0.00 70 1014.7
20260509115141 8 30 8.0 14.5 0.00 0.00 0.00 70 1014.8
20260509114641 8 75 8.0 12.9 0.00 0.00 0.00 71 1014.8
20260509113641 8 74 11.3 11.3 0.00 0.00 0.00 71 1014.9
20260509113141 8 62 4.8 9.7 0.00 0.00 0.00 71 1014.9
20260509112642 8 58 8.0 9.7 0.00 0.00 0.00 69 1014.9
20260509112141 8 32 9.7 11.3 0.00 0.00 0.00 69 1014.9
20260509111641 8 58 6.4 12.9 0.00 0.00 0.00 69 1014.9
20260509111141 8 29 9.7 12.9 0.00 0.00 0.00 69 1014.8
20260509110641 8 59 6.4 12.9 0.00 0.00 0.00 70 1014.8
20260509110141 8 38 8.0 12.9 0.00 0.00 0.00 69 1014.8
20260509105641 8 66 8.0 12.9 0.00 0.00 0.00 69 1015.2
20260509105141 8 35 6.4 12.9 0.00 0.00 0.00 70 1015.3
20260509104641 8 56 8.0 12.9 0.00 0.00 0.00 68 1015.3
20260509104141 8 48 6.4 12.9 0.00 0.00 0.00 68 1015.6
20260509103641 8 78 8.0 12.9 0.00 0.00 0.00 68 1015.5
20260509103141 8 49 8.0 11.3 0.00 0.00 0.00 68 1015.5
20260509102640 8 74 6.4 11.3 0.00 0.00 0.00 69 1015.6
20260509102141 8 69 8.0 11.3 0.00 0.00 0.00 69 1015.7
20260509101640 8 92 6.4 14.5 0.00 0.00 0.00 69 1015.8
20260509101141 8 48 6.4 14.5 0.00 0.00 0.00 70 1015.7
20260509100641 8 74 8.0 12.9 0.00 0.00 0.00 70 1015.6
20260509100141 8 59 6.4 11.3 0.00 0.00 0.00 71 1015.6
20260509095640 8 65 8.0 12.9 0.00 0.00 0.00 71 1015.8
20260509095140 8 51 8.0 12.9 0.00 0.00 0.00 70 1015.7
20260509094640 8 76 6.4 12.9 0.00 0.00 0.00 69 1015.8
20260509094140 8 51 9.7 11.3 0.00 0.00 0.00 70 1015.8
20260509093640 8 30 6.4 11.3 0.00 0.00 0.00 70 1015.7
20260509092640 8 50 9.7 12.9 0.00 0.00 0.00 70 1015.9
20260509092140 8 67 9.7 12.9 0.00 0.00 0.00 70 1015.9
20260509091640 8 71 12.9 12.9 0.00 0.00 0.00 70 1016.0
20260509091140 8 34 8.0 12.9 0.00 0.00 0.00 70 1016.0
20260509090640 8 74 6.4 12.9 0.00 0.00 0.00 71 1016.0
20260509090139 8 82 6.4 12.9 0.00 0.00 0.00 71 1016.0
20260509085640 8 62 6.4 11.3 0.00 0.00 0.00 71 1016.1
20260509085140 8 67 4.8 14.5 0.00 0.00 0.00 72 1016.2
20260509084140 8 74 11.3 14.5 0.00 0.00 0.00 73 1016.3
20260509083640 8 54 8.0 14.5 0.00 0.00 0.00 73 1016.3
20260509083140 8 55 6.4 11.3 0.00 0.00 0.00 73 1016.4
20260509082639 8 51 6.4 11.3 0.00 0.00 0.00 72 1016.3